Weather History for KCKC - September, 2013

Change the Weather History Date:

Tuesday, September 10, 2013

  Actual Average Record
Temperature  
Mean Temperature 63 °F -  
Max Temperature 71 °F 64 °F 77 °F (2005)
Min Temperature 55 °F 45 °F 30 °F (2006)
Degree Days  
Heating Degree Days 2    
Growing Degree Days 13 (Base 50)    
Moisture  
Dew Point 56 °F    
Average Humidity 84    
Maximum Humidity 94    
Minimum Humidity 60    
Precipitation  
Precipitation 0.05 in - - ()
Sea Level Pressure  
Sea Level Pressure 29.83 in    
Wind  
Wind Speed 3 mph (WSW)    
Max Wind Speed 12 mph    
Max Gust Speed 21 mph    
Visibility 7 miles    
Events Rain    
Averages and records for this station are not official NWS values.
T = Trace of Precipitation, MM = Missing Value Source: NWS Daily Summary

Daily Weather History Graph

Daily Weather History Graph

Search for Another Location

Airport or City:

Trip Planner

Search our weather history database for the weather conditions in past years. The results will help you decide how hot, cold, wet, or windy it might be!

Date:

Astronomy

Sep. 10, 2013 Rise Set
Actual Time 6:32 AM CDT 7:23 PM CDT
Civil Twilight 6:00 AM CDT 7:54 PM CDT
Nautical Twilight 5:23 AM CDT 8:32 PM CDT
Astronomical Twilight 4:43 AM CDT 9:11 PM CDT
Moon 12:24 PM CDT (9/10) 9:59 PM CDT (9/10)
Length of Visible Light 13h 53m
Length of Day
12h 51m
Waxing Crescent, 28% of the Moon is Illuminated
Sep 10
Waxing Crescent
Sep 12
First Quarter
Sep 19
Full
Sep 26
Last Quarter
Oct 4
New

Hourly Weather History & Observations

Time (CDT) Temp. Dew Point Humidity Pressure Visibility Wind Dir Wind Speed Gust Speed Precip Events Conditions
12:14 AM 60.8 °F 57.2 °F 88% 29.74 in 1.5 mi NE 3.5 mph - N/A   Overcast
12:34 AM 60.8 °F 57.2 °F 88% 29.74 in 1.5 mi Calm Calm - N/A   Overcast
12:53 AM 60.8 °F 57.2 °F 88% 29.74 in 1.2 mi ENE 3.5 mph - N/A   Overcast
1:13 AM 60.8 °F 57.2 °F 88% 29.75 in 1.2 mi Calm Calm - N/A   Overcast
1:26 AM 59.0 °F 57.2 °F 94% 29.75 in 1.0 mi Calm Calm - N/A   Overcast
1:59 AM 59.0 °F 55.4 °F 88% 29.75 in 1.0 mi Calm Calm - N/A   Overcast
2:13 AM 59.0 °F 55.4 °F 88% 29.76 in 1.0 mi Calm Calm - N/A   Overcast
2:33 AM 59.0 °F 55.4 °F 88% 29.75 in 1.0 mi Calm Calm - 0.01 in   Overcast
2:54 AM 59.0 °F 55.4 °F 88% 29.75 in 0.8 mi Calm Calm - 0.01 in   Overcast
3:13 AM 59.0 °F 55.4 °F 88% 29.75 in 0.8 mi Calm Calm - N/A   Overcast
3:34 AM 59.0 °F 55.4 °F 88% 29.76 in 1.0 mi Calm Calm - N/A Rain Rain
3:53 AM 59.0 °F 55.4 °F 88% 29.75 in 1.2 mi Calm Calm - N/A   Overcast
4:13 AM 59.0 °F 55.4 °F 88% 29.75 in 1.0 mi Calm Calm - N/A   Drizzle
4:33 AM 59.0 °F 55.4 °F 88% 29.75 in 1.0 mi Calm Calm - N/A   Light Drizzle
4:53 AM 59.0 °F 55.4 °F 88% 29.76 in 1.2 mi Calm Calm - 0.01 in   Drizzle
5:14 AM 59.0 °F 55.4 °F 88% 29.76 in 1.8 mi Calm Calm - 0.01 in   Drizzle
5:34 AM 59.0 °F 55.4 °F 88% 29.77 in 1.2 mi South 3.5 mph - 0.02 in   Drizzle
5:54 AM 57.2 °F 55.4 °F 94% 29.77 in 1.2 mi South 3.5 mph - 0.02 in   Drizzle
6:13 AM 57.2 °F 55.4 °F 94% 29.78 in 1.8 mi SSW 3.5 mph - 0.01 in   Light Drizzle
6:33 AM 57.2 °F 55.4 °F 94% 29.78 in 2.5 mi Calm Calm - 0.01 in   Overcast
6:54 AM 57.2 °F 55.4 °F 94% 29.78 in 4.0 mi Calm Calm - 0.01 in   Overcast
7:13 AM 57.2 °F 55.4 °F 94% 29.79 in 2.5 mi Calm Calm - N/A   Overcast
7:33 AM 57.2 °F 55.4 °F 94% 29.79 in 5.0 mi SSW 3.5 mph - N/A   Overcast
7:54 AM 57.2 °F 55.4 °F 94% 29.79 in 2.5 mi Calm Calm - N/A   Overcast
8:13 AM 59.0 °F 55.4 °F 88% 29.80 in 2.0 mi SW 3.5 mph - N/A   Overcast
8:34 AM 59.0 °F 55.4 °F 88% 29.80 in 2.5 mi WSW 3.5 mph - N/A   Overcast
8:54 AM 60.8 °F 57.2 °F 88% 29.80 in 10.0 mi WSW 3.5 mph - N/A   Overcast
9:13 AM 62.6 °F 59.0 °F 88% 29.80 in 10.0 mi West 3.5 mph - N/A   Overcast
9:34 AM 62.6 °F 59.0 °F 88% 29.80 in 10.0 mi SW 4.6 mph - N/A   Mostly Cloudy
9:53 AM 62.6 °F 59.0 °F 88% 29.80 in 10.0 mi WSW 4.6 mph - N/A   Overcast
10:14 AM 64.4 °F 60.8 °F 88% 29.80 in 10.0 mi Calm Calm - N/A   Overcast
10:33 AM 64.4 °F 60.8 °F 88% 29.81 in 10.0 mi West 8.1 mph - N/A   Overcast
10:53 AM 64.4 °F 59.0 °F 83% 29.81 in 10.0 mi West 6.9 mph - N/A   Mostly Cloudy
11:14 AM 64.4 °F 57.2 °F 77% 29.82 in 10.0 mi West 8.1 mph 16.1 mph N/A   Scattered Clouds
11:33 AM 64.4 °F 57.2 °F 77% 29.83 in 10.0 mi West 8.1 mph - N/A   Mostly Cloudy
11:53 AM 64.4 °F 57.2 °F 77% 29.84 in 10.0 mi West 8.1 mph - N/A   Mostly Cloudy
12:14 PM 64.4 °F 57.2 °F 77% 29.83 in 10.0 mi West 8.1 mph 16.1 mph N/A   Mostly Cloudy
12:33 PM 64.4 °F 57.2 °F 77% 29.84 in 10.0 mi West 10.4 mph 16.1 mph N/A   Scattered Clouds
12:53 PM 64.4 °F 57.2 °F 77% 29.85 in 10.0 mi West 8.1 mph 18.4 mph N/A   Mostly Cloudy
1:14 PM 64.4 °F 57.2 °F 77% 29.85 in 10.0 mi West 5.8 mph - N/A   Mostly Cloudy
1:33 PM 66.2 °F 57.2 °F 73% 29.86 in 10.0 mi West 6.9 mph - N/A   Scattered Clouds
1:53 PM 66.2 °F 57.2 °F 73% 29.86 in 10.0 mi West 3.5 mph - N/A   Scattered Clouds
2:14 PM 66.2 °F 57.2 °F 73% 29.86 in 10.0 mi WSW 5.8 mph - N/A   Scattered Clouds
2:33 PM 69.8 °F 57.2 °F 64% 29.86 in 10.0 mi West 9.2 mph - N/A   Scattered Clouds
2:53 PM 69.8 °F 57.2 °F 64% 29.86 in 10.0 mi WSW 11.5 mph 20.7 mph N/A   Scattered Clouds
3:14 PM 69.8 °F 57.2 °F 64% 29.87 in 10.0 mi West 6.9 mph - N/A   Mostly Cloudy
3:33 PM 66.2 °F 57.2 °F 73% 29.87 in 10.0 mi West 5.8 mph - N/A   Mostly Cloudy
3:53 PM 66.2 °F 57.2 °F 73% 29.87 in 10.0 mi West 5.8 mph - N/A   Scattered Clouds
4:14 PM 71.6 °F 57.2 °F 60% 29.87 in 10.0 mi SW 9.2 mph - N/A   Scattered Clouds
4:34 PM 71.6 °F 57.2 °F 60% 29.87 in 10.0 mi WSW 8.1 mph - N/A   Scattered Clouds
4:53 PM 66.2 °F 57.2 °F 73% 29.87 in 10.0 mi WNW 3.5 mph - N/A   Mostly Cloudy
5:13 PM 64.4 °F 57.2 °F 77% 29.88 in 10.0 mi West 6.9 mph 16.1 mph N/A Rain Rain
5:33 PM 64.4 °F 59.0 °F 83% 29.88 in 10.0 mi WNW 4.6 mph - N/A   Mostly Cloudy
5:54 PM 64.4 °F 57.2 °F 77% 29.88 in 10.0 mi West 3.5 mph - N/A   Scattered Clouds
6:13 PM 64.4 °F 57.2 °F 77% 29.88 in 10.0 mi West 3.5 mph - N/A   Mostly Cloudy
6:33 PM 64.4 °F 59.0 °F 83% 29.88 in 10.0 mi WNW 3.5 mph - N/A   Mostly Cloudy
6:53 PM 64.4 °F 59.0 °F 83% 29.89 in 10.0 mi Calm Calm - N/A   Scattered Clouds
7:13 PM 62.6 °F 57.2 °F 82% 29.89 in 10.0 mi West 3.5 mph - N/A   Scattered Clouds
7:34 PM 62.6 °F 57.2 °F 82% 29.90 in 10.0 mi West 3.5 mph - N/A   Scattered Clouds
7:53 PM 62.6 °F 57.2 °F 82% 29.90 in 10.0 mi Calm Calm - N/A   Scattered Clouds
8:13 PM 60.8 °F 57.2 °F 88% 29.91 in 10.0 mi Calm Calm - N/A   Clear
8:33 PM 60.8 °F 55.4 °F 82% 29.92 in 10.0 mi Calm Calm - N/A   Clear
8:53 PM 59.0 °F 55.4 °F 88% 29.92 in 10.0 mi Calm Calm - N/A   Clear
9:13 PM 59.0 °F 55.4 °F 88% 29.92 in 10.0 mi Calm Calm - N/A   Clear
9:34 PM 57.2 °F 53.6 °F 88% 29.92 in 10.0 mi Calm Calm - N/A   Clear
9:53 PM 57.2 °F 53.6 °F 88% 29.93 in 10.0 mi WSW 3.5 mph - N/A   Clear
10:13 PM 57.2 °F 53.6 °F 88% 29.93 in 10.0 mi Calm Calm - N/A   Clear
10:34 PM 55.4 °F 51.8 °F 88% 29.93 in 10.0 mi WNW 3.5 mph - N/A   Clear
10:53 PM 57.2 °F 53.6 °F 88% 29.93 in 10.0 mi Calm Calm - N/A   Clear
11:13 PM 57.2 °F 53.6 °F 88% 29.93 in 10.0 mi Calm Calm - N/A   Clear
11:34 PM 55.4 °F 51.8 °F 88% 29.92 in 10.0 mi Calm Calm - N/A   Clear
11:53 PM 55.4 °F 51.8 °F 88% 29.93 in 5.0 mi Calm Calm - N/A   Clear